DW2753 Weather Reports


Display with metric or nautical units.
time (UTC)temp
F
wind
direction
speed
MPH
gust
MPH
rain 1hr
in
rain 24hr
in
rain mn
in
humidity
%
barometer
mb
20210917234038 56 256 1.0 5.0 0.00 0.62 0.62 88 997.6
20210917233538 56 256 2.0 7.0 0.00 0.62 0.62 88 997.8
20210917233037 55 86 2.0 7.0 0.00 0.62 0.62 88 997.5
20210917232537 55 72 1.0 5.0 0.00 0.62 0.62 88 997.9
20210917232037 55 247 0.0 3.0 0.00 0.62 0.62 88 998.3
20210917231536 55 75 1.0 4.0 0.00 0.62 0.62 88 998.0
20210917231036 55 76 1.0 4.0 0.00 0.62 0.62 88 998.2
20210917230536 55 191 1.0 3.0 0.00 0.62 0.62 88 998.5
20210917230036 54 86 1.0 3.0 0.00 0.62 0.62 88 998.5
20210917225537 54 85 0.0 3.0 0.00 0.62 0.62 88 998.4
20210917225037 54 145 0.0 3.0 0.00 0.62 0.62 88 998.4
20210917224535 54 146 0.0 3.0 0.00 0.62 0.62 88 998.7
20210917224034 54 145 0.0 2.0 0.00 0.62 0.62 88 998.8
20210917223534 54 146 0.0 1.0 0.00 0.62 0.62 88 998.9
20210917223034 54 145 0.0 2.0 0.00 0.62 0.62 88 999.0
20210917222534 54 145 0.0 2.0 0.00 0.62 0.62 88 999.1
20210917222034 54 145 0.0 3.0 0.00 0.62 0.62 88 999.1
20210917221534 54 157 1.0 3.0 0.00 0.62 0.62 88 999.5
20210917221034 54 70 1.0 4.0 0.00 0.62 0.62 88 999.4
20210917220535 54 70 1.0 4.0 0.00 0.62 0.62 88 999.4
20210917220034 54 186 0.0 3.0 0.00 0.62 0.62 88 999.4
20210917215534 54 187 0.0 1.0 0.00 0.62 0.62 88 999.3
20210917215033 54 187 0.0 3.0 0.00 0.62 0.62 88 999.2
20210917214532 54 188 0.0 3.0 0.00 0.62 0.62 89 999.4
20210917214032 54 41 0.0 1.0 0.00 0.62 0.62 89 999.4
20210917213533 54 40 0.0 2.0 0.00 0.62 0.62 88 999.6
20210917213032 54 41 0.0 2.0 0.00 0.62 0.62 89 999.4
20210917212533 54 41 0.0 2.0 0.00 0.62 0.62 88 999.4
20210917212032 54 41 0.0 1.0 0.00 0.62 0.62 88 999.3
20210917211532 54 41 0.0 1.0 0.00 0.62 0.62 88 999.4
20210917211033 54 40 0.0 2.0 0.00 0.62 0.62 88 999.4
20210917210532 53 40 0.0 2.0 0.00 0.62 0.62 88 999.3
20210917210030 53 41 0.0 1.0 0.00 0.62 0.62 88 999.4
20210917205530 53 41 1.0 3.0 0.00 0.62 0.62 87 999.5
20210917205030 53 40 1.0 3.0 0.00 0.62 0.62 88 999.6
20210917204530 53 41 0.0 2.0 0.00 0.62 0.62 87 999.9
20210917204029 53 40 0.0 2.0 0.00 0.62 0.62 87 999.8
20210917203529 53 41 0.0 3.0 0.01 0.62 0.62 87 1000.1
20210917203031 53 41 0.0 3.0 0.01 0.62 0.62 86 1000.2
20210917202530 53 40 0.0 2.0 0.01 0.62 0.62 87 1000.1
20210917202030 52 40 0.0 2.0 0.02 0.62 0.62 87 1000.1
20210917201530 52 41 0.0 1.0 0.02 0.62 0.62 87 1000.3
20210917201027 52 41 0.0 1.0 0.02 0.62 0.62 86 1000.3
20210917200528 52 40 0.0 0.0 0.03 0.62 0.62 87 1000.3
20210917200029 52 40 0.0 0.0 0.04 0.62 0.62 87 1000.6
20210917195528 52 41 0.0 0.0 0.06 0.62 0.62 87 1000.6
20210917195028 52 41 0.0 1.0 0.06 0.62 0.62 87 1000.7
20210917194530 52 41 0.0 3.0 0.07 0.62 0.62 87 1000.9
20210917194027 52 40 0.0 3.0 0.08 0.62 0.62 87 1000.9
20210917193529 52 40 0.0 1.0 0.08 0.61 0.61 87 1001.0
20210917193028 52 40 0.0 1.0 0.09 0.61 0.61 86 1001.1
20210917192528 52 41 0.0 2.0 0.09 0.61 0.61 86 1001.1
20210917192028 52 40 0.0 2.0 0.09 0.61 0.61 86 1001.2
20210917191528 52 40 0.0 1.0 0.09 0.60 0.60 86 1001.5
20210917191027 52 40 0.0 2.0 0.09 0.60 0.60 86 1001.5
20210917190528 52 40 0.0 2.0 0.10 0.59 0.59 86 1001.6
20210917190028 52 41 0.0 2.0 0.10 0.58 0.58 86 1001.8
20210917185528 52 40 0.0 0.0 0.09 0.57 0.57 86 1002.1
20210917185028 52 41 0.0 0.0 0.09 0.56 0.56 86 1002.2
20210917184527 52 40 0.0 1.0 0.10 0.55 0.55 86 1002.1
20210917184026 52 41 0.0 1.0 0.10 0.54 0.54 86 1002.2
20210917183526 52 41 0.0 3.0 0.11 0.54 0.54 86 1002.2
20210917183025 52 41 0.0 3.0 0.11 0.53 0.53 85 1002.3
20210917182525 52 35 0.0 3.0 0.12 0.53 0.53 85 1002.5
20210917182025 51 35 0.0 3.0 0.13 0.52 0.52 85 1002.6
20210917181526 52 26 0.0 0.0 0.13 0.51 0.51 85 1002.6
20210917181026 52 354 0.0 0.0 0.13 0.50 0.50 85 1002.8
20210917180526 52 354 0.0 0.0 0.12 0.49 0.50 85 1003.0
20210917180026 51 359 0.0 0.0 0.12 0.48 0.48 85 1003.0
20210917175525 51 350 0.0 0.0 0.12 0.47 0.47 85 1003.1
20210917175025 51 354 0.0 0.0 0.12 0.46 0.46 85 1003.2
20210917174526 52 354 0.0 0.0 0.11 0.45 0.45 85 1003.2
20210917174026 51 349 0.0 0.0 0.11 0.44 0.44 85 1003.2
20210917173526 51 349 0.0 0.0 0.10 0.43 0.43 85 1003.4
20210917173025 51 359 0.0 0.0 0.10 0.42 0.42 85 1003.4
20210917172526 51 359 0.0 0.0 0.10 0.41 0.41 85 1003.3
20210917172023 51 359 0.0 0.0 0.09 0.39 0.39 85 1003.5
20210917171523 51 359 0.0 0.0 0.09 0.39 0.39 85 1003.5
20210917171024 51 359 0.0 0.0 0.09 0.38 0.38 85 1003.5
20210917170521 51 359 0.0 0.0 0.09 0.37 0.37 85 1003.6
20210917170021 51 359 0.0 0.0 0.09 0.36 0.36 84 1003.6
20210917165521 51 348 0.0 0.0 0.08 0.35 0.35 85 1003.7
20210917165020 51 348 0.0 1.0 0.08 0.35 0.35 85 1003.8
20210917164520 51 359 0.0 1.0 0.08 0.34 0.34 84 1003.8
20210917164019 51 359 0.0 0.0 0.07 0.33 0.33 84 1004.1
20210917163519 51 359 0.0 0.0 0.07 0.32 0.32 85 1004.1
20210917163020 51 336 0.0 0.0 0.07 0.31 0.31 85 1004.1
20210917162519 51 337 0.0 0.0 0.07 0.31 0.31 85 1004.2
20210917162019 51 359 0.0 0.0 0.06 0.30 0.30 85 1004.3
20210917161519 51 335 0.0 0.0 0.06 0.29 0.29 85 1004.4
20210917161019 51 335 0.0 0.0 0.06 0.28 0.28 85 1004.5
20210917160520 51 359 0.0 0.0 0.07 0.28 0.28 85 1004.6
20210917160017 51 359 0.0 0.0 0.07 0.28 0.28 85 1004.7
20210917155517 51 359 0.0 0.0 0.07 0.28 0.28 85 1004.8
20210917155018 51 332 0.0 0.0 0.06 0.27 0.27 85 1004.9
20210917154517 51 332 0.0 1.0 0.06 0.26 0.27 85 1004.9
20210917154017 51 332 0.0 1.0 0.07 0.26 0.26 85 1005.0
20210917153517 51 359 0.0 1.0 0.06 0.25 0.25 85 1005.1
20210917153017 51 333 0.0 0.0 0.06 0.24 0.24 85 1005.1
20210917152517 51 359 0.0 1.0 0.06 0.24 0.24 85 1005.2
20210917152017 50 332 0.0 1.0 0.06 0.24 0.24 85 1005.4
20210917151517 50 312 0.0 0.0 0.06 0.23 0.23 85 1005.5
20210917151015 50 359 0.0 2.0 0.06 0.22 0.22 86 1005.5
20210917150515 50 312 0.0 2.0 0.06 0.21 0.21 86 1005.6
20210917150016 50 312 0.0 2.0 0.05 0.20 0.20 86 1005.7
20210917145515 50 359 0.0 2.0 0.06 0.20 0.20 86 1005.7
20210917145016 50 312 0.0 1.0 0.06 0.20 0.20 86 1005.8
20210917144515 50 312 0.0 0.0 0.06 0.20 0.20 86 1005.8
20210917144016 50 312 0.0 1.0 0.06 0.19 0.19 86 1005.9
20210917143515 50 359 0.0 1.0 0.06 0.19 0.19 86 1006.0
20210917143015 50 312 0.0 1.0 0.06 0.18 0.18 86 1006.2
20210917142514 50 312 0.0 1.0 0.07 0.18 0.18 87 1006.2
20210917142013 50 359 0.0 1.0 0.07 0.17 0.17 87 1006.4
20210917141513 50 312 0.0 0.0 0.08 0.17 0.17 87 1006.5
20210917141013 50 312 0.0 0.0 0.08 0.17 0.17 87 1006.5
20210917140513 50 313 0.0 0.0 0.08 0.16 0.16 87 1006.6
20210917140013 50 312 0.0 1.0 0.09 0.16 0.16 87 1006.7
20210917135513 50 312 0.0 1.0 0.08 0.15 0.15 87 1006.7
20210917135013 50 312 0.0 0.0 0.08 0.14 0.14 87 1006.8
20210917134513 50 312 0.0 0.0 0.07 0.13 0.13 87 1006.9
20210917134013 50 359 0.0 0.0 0.07 0.13 0.13 87 1006.9
20210917133513 50 312 0.0 2.0 0.08 0.13 0.13 87 1007.0
20210917133013 50 359 0.0 2.0 0.07 0.12 0.12 87 1007.0
20210917132513 50 312 0.0 0.0 0.06 0.11 0.11 87 1007.1
20210917132013 50 313 0.0 0.0 0.06 0.10 0.10 87 1007.2
20210917131516 50 312 0.0 0.0 0.06 0.09 0.09 87 1007.2
20210917131012 50 312 0.0 0.0 0.06 0.09 0.09 88 1007.2
20210917130513 50 312 0.0 0.0 0.05 0.08 0.08 88 1007.3
20210917130012 50 359 0.0 1.0 0.04 0.07 0.07 88 1007.3
20210917125512 50 313 0.0 2.0 0.04 0.07 0.07 88 1007.3
20210917125013 50 312 0.0 2.0 0.04 0.06 0.06 88 1007.4
20210917124513 50 252 0.0 2.0 0.04 0.06 0.06 88 1007.4
20210917124012 50 204 0.0 0.0 0.03 0.06 0.06 88 1007.4
20210917123513 50 359 0.0 0.0 0.03 0.05 0.05 88 1007.5
20210917123012 50 204 0.0 0.0 0.03 0.05 0.05 88 1007.5
20210917122512 50 206 0.0 0.0 0.03 0.05 0.05 88 1007.6
20210917122011 50 206 0.0 0.0 0.02 0.04 0.04 88 1007.5
20210917121510 50 359 0.0 0.0 0.02 0.04 0.04 88 1007.6
20210917121011 50 206 0.0 0.0 0.02 0.03 0.03 88 1007.6
20210917120511 51 206 0.0 0.0 0.02 0.03 0.03 88 1007.7
20210917120010 51 206 0.0 0.0 0.02 0.03 0.03 88 1007.7
20210917115508 51 204 0.0 0.0 0.02 0.03 0.03 88 1007.9
20210917115008 51 206 0.0 0.0 0.02 0.02 0.02 88 1007.9
20210917114509 51 206 0.0 0.0 0.02 0.02 0.02 88 1008.1
20210917114010 51 204 0.0 0.0 0.02 0.02 0.02 88 1008.1
20210917113508 51 359 0.0 0.0 0.02 0.02 0.02 88 1008.2
20210917113009 51 205 0.0 0.0 0.02 0.02 0.02 88 1008.2
20210917112508 51 206 0.0 0.0 0.02 0.02 0.02 87 1008.2
20210917112008 51 206 0.0 0.0 0.02 0.02 0.02 87 1008.2
20210917111510 51 206 0.0 0.0 0.02 0.02 0.02 87 1008.3
20210917111008 51 206 0.0 0.0 0.02 0.02 0.02 87 1008.4
20210917110506 52 206 0.0 0.0 0.01 0.01 0.01 86 1008.4
20210917110009 52 206 0.0 0.0 0.01 0.01 0.01 87 1008.5
20210917105506 52 206 0.0 0.0 0.01 0.01 0.01 86 1008.4
20210917105006 52 205 0.0 0.0 0.00 0.00 0.00 86 1008.6
20210917104506 52 206 0.0 0.0 0.00 0.00 0.00 85 1008.7
20210917104006 52 206 0.0 0.0 0.00 0.00 0.00 85 1008.6
20210917103506 52 206 0.0 0.0 0.00 0.00 0.00 84 1008.6
20210917103007 52 206 0.0 0.0 0.00 0.00 0.00 84 1008.6
20210917102507 53 206 0.0 0.0 0.00 0.00 0.00 83 1008.6
20210917102006 53 206 0.0 0.0 0.00 0.00 0.00 84 1008.6
20210917101504 53 206 0.0 0.0 0.00 0.00 0.00 83 1008.7
20210917101005 53 206 0.0 0.0 0.00 0.00 0.00 83 1008.7
20210917100504 53 206 0.0 0.0 0.00 0.00 0.00 82 1008.7
20210917100005 53 206 0.0 0.0 0.00 0.00 0.00 82 1008.8
20210917095505 53 206 0.0 0.0 0.00 0.00 0.00 81 1008.9
20210917095004 53 206 0.0 0.0 0.00 0.00 0.00 81 1009.0
20210917094505 53 206 0.0 0.0 0.00 0.00 0.00 81 1009.0
20210917094004 53 206 0.0 0.0 0.00 0.00 0.00 81 1009.2
20210917093504 53 206 0.0 0.0 0.00 0.00 0.00 80 1009.4
20210917093005 53 206 0.0 1.0 0.00 0.00 0.00 80 1009.4
20210917092502 53 206 0.0 1.0 0.00 0.00 0.00 80 1009.4
20210917092002 53 206 0.0 1.0 0.00 0.00 0.00 80 1009.4
20210917091502 53 206 0.0 2.0 0.00 0.00 0.00 79 1009.6
20210917091003 53 206 0.0 2.0 0.00 0.00 0.00 78 1009.7
20210917090502 53 205 0.0 2.0 0.00 0.00 0.00 79 1009.6
20210917090002 53 205 0.0 3.0 0.00 0.00 0.00 79 1009.9
20210917085502 53 199 1.0 3.0 0.00 0.00 0.00 79 1009.5
20210917085002 53 41 0.0 3.0 0.00 0.00 0.00 79 1009.4
20210917084502 53 166 0.0 2.0 0.00 0.00 0.00 79 1009.6
20210917084002 53 164 0.0 2.0 0.00 0.00 0.00 79 1009.8
20210917083500 53 153 0.0 1.0 0.00 0.00 0.00 79 1009.4
20210917083000 53 77 0.0 1.0 0.00 0.00 0.00 80 1009.2
20210917082500 53 77 0.0 2.0 0.00 0.00 0.00 80 1009.5
20210917082000 53 62 0.0 3.0 0.00 0.00 0.00 81 1009.6
20210917081500 53 23 1.0 3.0 0.00 0.00 0.00 81 1009.3
20210917081000 53 19 0.0 3.0 0.00 0.00 0.00 80 1010.0
20210917080500 53 274 0.0 1.0 0.00 0.00 0.00 80 1010.0
20210917080000 53 274 0.0 1.0 0.00 0.00 0.00 80 1009.9
20210917075459 53 274 0.0 1.0 0.00 0.00 0.00 80 1010.0
20210917074959 53 274 0.0 0.0 0.00 0.00 0.00 81 1010.3
20210917074458 53 274 0.0 0.0 0.00 0.00 0.00 80 1010.4
20210917073957 53 274 0.0 1.0 0.00 0.00 0.00 80 1010.3
20210917073457 53 274 0.0 2.0 0.00 0.00 0.00 80 1010.5
20210917072957 53 274 0.0 2.0 0.00 0.00 0.00 80 1010.2
20210917072456 52 247 0.0 1.0 0.00 0.00 0.00 81 1010.7
20210917071956 52 247 0.0 3.0 0.00 0.00 0.00 82 1010.6
20210917071455 52 247 0.0 3.0 0.00 0.00 0.00 82 1010.7
20210917070956 52 291 1.0 5.0 0.00 0.00 0.00 82 1010.4
20210917070456 52 291 1.0 5.0 0.00 0.00 0.00 82 1010.6
20210917065955 52 27 1.0 4.0 0.00 0.00 0.00 82 1010.5
20210917065455 52 272 0.0 2.0 0.00 0.00 0.00 83 1010.6
20210917064955 52 269 0.0 2.0 0.00 0.00 0.00 83 1010.9
20210917064456 52 269 0.0 2.0 0.00 0.00 0.00 83 1010.8
20210917063956 52 269 0.0 2.0 0.00 0.00 0.00 83 1011.3
20210917063456 52 269 0.0 1.0 0.00 0.00 0.00 83 1011.0
20210917062956 52 47 0.0 1.0 0.00 0.00 0.00 83 1011.4
20210917062456 52 48 0.0 1.0 0.00 0.00 0.00 83 1010.9
20210917061956 52 49 0.0 0.0 0.00 0.00 0.00 83 1011.1
20210917061455 52 48 0.0 0.0 0.00 0.00 0.00 83 1011.4
20210917060956 52 48 0.0 0.0 0.00 0.00 0.00 83 1011.2
20210917060456 52 48 0.0 0.0 0.00 0.00 0.00 83 1011.5
20210917055953 52 48 0.0 0.0 0.00 0.00 0.00 83 1011.4
20210917055452 52 48 0.0 0.0 0.00 0.00 0.00 82 1011.4
20210917054953 52 49 0.0 0.0 0.00 0.00 0.00 82 1011.5
20210917054452 52 48 0.0 0.0 0.00 0.00 0.00 82 1011.5
20210917053949 52 48 0.0 0.0 0.00 0.00 0.00 82 1011.6
20210917053449 52 48 0.0 0.0 0.00 0.00 0.00 82 1011.7
20210917052949 53 48 0.0 0.0 0.00 0.00 0.00 82 1011.7
20210917052449 53 49 0.0 0.0 0.00 0.00 0.00 82 1011.7
20210917051948 53 49 0.0 0.0 0.00 0.00 0.00 81 1011.7
20210917051447 53 49 0.0 0.0 0.00 0.00 0.00 81 1011.8
20210917050947 53 48 0.0 0.0 0.00 0.00 0.00 81 1011.9
20210917050447 53 49 0.0 0.0 0.00 0.00 0.00 81 1012.0
20210917045948 53 49 0.0 0.0 0.00 0.00 0.00 80 1012.1
20210917045447 53 48 0.0 0.0 0.00 0.00 0.00 80 1012.2
20210917044947 53 48 0.0 0.0 0.00 0.00 0.00 80 1012.2
20210917044447 53 48 0.0 0.0 0.00 0.00 0.00 80 1012.3
20210917043948 53 49 0.0 0.0 0.00 0.00 0.00 80 1012.3
20210917043447 53 48 0.0 0.0 0.00 0.00 0.00 79 1012.3
20210917042946 53 48 0.0 0.0 0.00 0.00 0.00 79 1012.3
20210917042445 53 48 0.0 0.0 0.00 0.00 0.00 79 1012.4
20210917041946 53 48 0.0 0.0 0.00 0.00 0.00 78 1012.5
20210917041445 54 48 0.0 0.0 0.00 0.00 0.00 78 1012.5
20210917040946 54 49 0.0 0.0 0.00 0.00 0.00 78 1012.6
20210917040445 54 48 0.0 0.0 0.00 0.00 0.00 78 1012.7
20210917035945 54 48 0.0 0.0 0.00 0.00 0.00 77 1012.8
20210917035446 54 48 0.0 0.0 0.00 0.00 0.00 77 1012.9
20210917034946 54 48 0.0 0.0 0.00 0.00 0.00 77 1013.0
20210917034445 54 48 0.0 0.0 0.00 0.00 0.00 77 1013.1
20210917033945 54 48 0.0 0.0 0.00 0.00 0.00 76 1013.1
20210917033443 54 48 0.0 0.0 0.00 0.00 0.00 76 1013.1
20210917032943 55 49 0.0 0.0 0.00 0.00 0.00 76 1013.3
20210917032443 55 49 0.0 0.0 0.00 0.00 0.00 74 1013.2
20210917031942 55 49 0.0 0.0 0.00 0.00 0.00 74 1013.2
20210917031443 55 48 0.0 0.0 0.00 0.00 0.00 74 1013.3
20210917030943 55 48 0.0 0.0 0.00 0.00 0.00 74 1013.3
20210917030443 55 48 0.0 0.0 0.00 0.00 0.00 73 1013.2
20210917025943 55 48 0.0 0.0 0.00 0.00 0.00 73 1013.4
20210917025443 56 49 0.0 0.0 0.00 0.00 0.00 72 1013.5
20210917024943 56 48 0.0 0.0 0.00 0.00 0.00 72 1013.6
20210917024441 56 49 0.0 0.0 0.00 0.00 0.00 71 1013.7
20210917023941 56 48 0.0 0.0 0.00 0.00 0.00 71 1013.7
20210917023441 56 48 0.0 0.0 0.00 0.00 0.00 71 1013.8
20210917022942 57 48 0.0 0.0 0.00 0.00 0.00 69 1013.9
20210917022440 57 49 0.0 0.0 0.00 0.00 0.00 68 1013.9
20210917021941 57 48 0.0 0.0 0.00 0.00 0.00 67 1013.9
20210917021441 57 49 0.0 0.0 0.00 0.00 0.00 66 1014.1
20210917020941 57 48 0.0 0.0 0.00 0.00 0.00 66 1014.2
20210917020441 58 48 0.0 0.0 0.00 0.00 0.00 66 1014.3
20210917015941 58 49 0.0 0.0 0.00 0.00 0.00 64 1014.4
20210917015439 58 48 0.0 0.0 0.00 0.00 0.00 64 1014.5
20210917014939 58 48 0.0 0.0 0.00 0.00 0.00 64 1014.5
20210917014441 58 49 0.0 0.0 0.00 0.00 0.00 64 1014.5
20210917013938 58 48 0.0 0.0 0.00 0.00 0.00 63 1014.6
20210917013439 58 48 0.0 0.0 0.00 0.00 0.00 63 1014.6
20210917012939 58 48 0.0 0.0 0.00 0.00 0.00 63 1014.7
20210917012438 59 48 0.0 0.0 0.00 0.00 0.00 63 1014.7
20210917011938 59 48 0.0 0.0 0.00 0.00 0.00 62 1014.7
20210917011438 59 48 0.0 0.0 0.00 0.00 0.00 62 1014.8
20210917010939 59 48 0.0 1.0 0.00 0.00 0.00 62 1014.9
20210917010439 59 48 0.0 1.0 0.00 0.00 0.00 62 1015.0
20210917005938 59 48 0.0 1.0 0.00 0.00 0.00 62 1015.2
20210917005439 59 48 0.0 1.0 0.00 0.00 0.00 61 1015.3
20210917004939 59 48 0.0 1.0 0.00 0.00 0.00 61 1015.5
20210917004439 60 48 0.0 0.0 0.00 0.00 0.00 60 1015.6
20210917003937 60 49 0.0 2.0 0.00 0.00 0.00 61 1015.7
20210917003438 60 48 0.0 2.0 0.00 0.00 0.00 61 1015.7
20210917002937 60 39 0.0 0.0 0.00 0.00 0.00 60 1015.9
20210917002437 60 39 0.0 1.0 0.00 0.00 0.00 60 1015.9
20210917001937 60 39 0.0 1.0 0.00 0.00 0.00 59 1016.0
20210917001437 60 39 0.0 1.0 0.00 0.00 0.00 59 1016.0
20210917000936 60 39 0.0 1.0 0.00 0.00 0.00 60 1016.2
20210917000438 60 39 0.0 3.0 0.00 0.00 0.00 60 1016.3
20210916235936 60 40 0.0 3.0 0.00 0.00 0.00 58 1016.3
20210916235436 60 56 0.0 1.0 0.00 0.00 0.00 58 1016.4
20210916234937 61 37 0.0 2.0 0.00 0.00 0.00 58 1016.5
20210916234437 61 38 0.0 2.0 0.00 0.00 0.00 57 1016.6